Regional Weather Roundup
Issued by NWS Wilmington, NC

Home | Current Version | Previous Version | Text Only | Print | Product List | Glossary On
Versions: 1 2 3 4 5 6 7 8 9 10 11 12 13 14 15 16 17 18 19 20 21 22 23 24 25 26 27 28 29 30 31 32 33 34 35 36 37 38 39 40 41 42 43 44 45 46 47 48 49 50
000
ASUS42 KILM 222010
RWRILM
RWRILM
REGIONAL HOURLY WEATHER ROUNDUP
NATIONAL WEATHER SERVICE WILMINGTON NC
300 PM EST MON DEC 22 2014

NOTE: "FAIR" INDICATES FEW OR NO CLOUDS BELOW 12,000 FEET WITH NO
SIGNIFICANT WEATHER AND/OR OBSTRUCTIONS TO VISIBILITY.

...............WFO WILMINGTON COUNTY WARNING AREA...............

......COASTAL NC AND SC COUNTIES......

CITY           SKY/WX    TMP DP  RH WIND       PRES   REMARKS
WILMINGTON     CLOUDY    46  45  96 N10       30.00S FOG
SOUTHPORT      CLOUDY    47  45  93 N12       29.99S
N MYRTLE BEACH LGT RAIN  46  44  93 N12       30.00R
MYRTLE BEACH   LGT RAIN  46  43  87 N15       30.01R

......INLAND NC AND SC COUNTIES.......

CITY           SKY/WX    TMP DP  RH WIND       PRES   REMARKS
LUMBERTON      LGT RAIN  43  41  93 NE8       30.01F FOG
ELIZABETHTOWN  CLOUDY    44  44  99 CALM      30.02R FOG
WHITEVILLE     DRIZZLE   44  43  96 N3        30.00F
FLORENCE       LGT RAIN  43  41  93 NE12      29.99F FOG
DARLINGTON     CLOUDY    45  39  81 NE10      30.02R

....................REST OF NORTH CAROLINA......................

.........EASTERN NC.........

CITY           SKY/WX    TMP DP  RH WIND       PRES   REMARKS
CAPE HATTERAS  CLOUDY    55  55 100 N6        29.94R
JACKSONVILLE   CLOUDY    45  43  93 N7        30.01S
MOREHEAD CITY  CLOUDY    51  50  96 NW14      29.97S
KENANSVILLE    CLOUDY    43  43  98 N9        30.03F FOG
NEW BERN       CLOUDY    51  47  86 MISG      30.00F
ELIZABETH CITY LGT RAIN  55  51  86 NE13      29.99F FOG

.........CENTRAL NC.........

CITY           SKY/WX    TMP DP  RH WIND       PRES   REMARKS
RALEIGH DURHAM DRIZZLE   38  35  89 N6        30.05F FOG     WCI  33
ROCKY MOUNT    CLOUDY    41  39  93 N9        30.04F FOG
ROANOKE RAPIDS NOT AVBL
FAYETTEVILLE   CLOUDY    41  40  96 NE10      30.01F FOG
HOFFMAN        CLOUDY    40  40  99 N5        30.05R FOG

.........WESTERN NC.........

CITY           SKY/WX    TMP DP  RH WIND       PRES   REMARKS
CHARLOTTE      DRIZZLE   38  36  92 N9        30.04F FOG     WCI  31
GREENSBORO     DRIZZLE   36  34  92 NE9       30.04F FOG     WCI  29
HICKORY        NOT AVBL
BOONE          NOT AVBL
ASHEVILLE      NOT AVBL

.....................REST OF SOUTH CAROLINA.....................

.........EASTERN SC.........

CITY           SKY/WX    TMP DP  RH WIND       PRES   REMARKS
CHARLESTON     TSTM      47  46  97 NE9       29.98F FOG
BEAUFORT MCAS  LGT RAIN  48  46  93 NE6       29.96F FOG
HILTON HEAD    TSTM      52  52 100 S3        29.98F

.........CENTRAL SC.........

CITY           SKY/WX    TMP DP  RH WIND       PRES   REMARKS
COLUMBIA       RAIN      45  43  93 N8        30.00F FOG
ORANGEBURG     CLOUDY    45  43  93 E7        29.96F
SUMTER SHAW    CLOUDY    45  43  93 NE12      29.96F FOG

.........WESTERN SC.........

CITY           SKY/WX    TMP DP  RH WIND       PRES   REMARKS
GREENVILLE     NOT AVBL
ROCK HILL      CLOUDY    39  38  96 NE9       30.03F FOG     WCI  33
ANDERSON       CLOUDY    42  40  92 E10       29.99F FOG
CLEMSON        NOT AVBL
GREENWOOD      LGT RAIN  42  40  92 NE9       30.01S FOG


...................COASTAL AND OFFSHORE REPORTS..................

................LOCAL PIERS AND NC RESERVE................


STATION/POSITION TIME  SKY/WX   TEMP    WIND        PRES    VSBY
                                AIR SEA DIR/SP/G
                 (UTC)          (F)     (DEG/KT/KT) (MB)    (MI)
JOHNY MRCER PIER 2000            47 55  330/ 11/ 14 1014.9F
NC RESRV MASNBRO 1900            47     360/  2     1015.0F
OCEAN CREST PIER NOT AVBL
SPRINGMAID  PIER 2000            46 53  330/ 12/ 17 1015.5F


................COASTAL AND OFFSHORE BUOYS................


STATION/POSITION TIME  SKY/WX   TEMP    WIND        PRES    VSBY
                                AIR SEA DIR/SP/G
                 (UTC)          (F)     (DEG/KT/KT) (MB)    (MI)
DIMNDSHOAL 41025 2000            70                 1013.2S
WVE H/P(F/S)=  9/ 8

CAPE LOOKOUT     1900            51     320/ 11/ 12 1014.5F
ONSLOW BAY 41036 2000            53 60  350/ 12/ 14 1014.9S
WVE H/P(F/S)=  5/ 8 WND WVE H/P(F/S)=  3/ 4 SWL H/P/D(F/S/D)=  5/110/ 8

5 WRITEBCH 41038 NOT AVBL
MASONBORO  41110 2000               54                N/A
WVE H/P(F/S)=  4/ 8 WND WVE H/P(F/S)=  3/ 8

WILM HARBR 41108 2000               54                N/A
WVE H/P(F/S)=  3/ 8 WND WVE H/P(F/S)=  3/ 8

27WRITEBCH 41037 NOT AVBL
FRYING PAN 41013 2000            55 68   20/ 10/ 12 1015.3F
WVE H/P(F/S)=  4/ 7 WND WVE H/P(F/S)=  3/ 5 SWL H/P/D(F/S/D)=  3/ 80/ 7

SUNST NRSH 41024 1900            47      10/ 12/ 12   N/A
CAPRS NRSH 41029 1900            49      40/ 12/ 14   N/A
EDISTO     41004 2000            62 73   40/ 14/ 16 1013.4F
WVE H/P(F/S)=  4/ 8 WND WVE H/P(F/S)=  3/ 4 SWL H/P/D(F/S/D)=  3/ 8



..........OFFSHORE BUOYS BEYOND 100 NM OFFSHORE...........
.....IN A TRIANGLE---HAT TO BERMUDA TO BAHAMAS TO HAT.....


STATION/POSITION TIME  SKY/WX   TEMP    WIND        PRES    VSBY
                                AIR SEA DIR/SP/G
                 (UTC)          (F)     (DEG/KT/KT) (MB)    (MI)
150E HAT   41001 NOT AVBL
W BERMUDA  41048 1854            73 73  200/ 10/ 10 1017.7
WVE H/P(F/S)=  3/ 8 WND WVE H/P(F/S)=  2/ 4 SWL H/P/D(F/S/D)=  3/ 90/ 8

ATLANTIC S 41049 1925            78 79   CALM  /  2 1020.2S
WVE H/P(F/S)=  4/ 9 WND WVE H/P(F/S)=  2/ 4 SWL H/P/D(F/S/D)=  3/100/ 9

E BAHAMAS  41046 1910            78 80  110/ 14/ 16 1017.3
WVE H/P(F/S)=  4/ 9 WND WVE H/P(F/S)=  3/ 5 SWL H/P/D(F/S/D)=  3/ 50/ 9

NE BAHAMAS 41047 1858            77 78  180/ 14/ 16 1017.7F
WVE H/P(F/S)=  4/ 9 WND WVE H/P(F/S)=  3/ 6 SWL H/P/D(F/S/D)=  2/ 60/ 9

120E CANVRL41010 2000            76 77  190/ 14/ 17 1014.6F
WVE H/P(F/S)=  4/ 9 WND WVE H/P(F/S)=  2/ 4 SWL H/P/D(F/S/D)=  3/ 20/ 9


END


USA.gov is the U.S. government's official web portal to all federal, state and local government web resources and services.